TimeCDT,TemperatureF,Dew PointF,Humidity,Sea Level PressureIn,VisibilityMPH,Wind Direction,Wind SpeedMPH,Gust SpeedMPH,PrecipitationIn,Events,Conditions,WindDirDegrees,DateUTC
12:12 AM,52.3,20.5,29,29.93,10.0,SSE,19.6,25.3,N/A,,Overcast,150,2012-10-13 05:12:00
12:32 AM,52.3,22.1,31,29.93,10.0,SSE,13.8,19.6,N/A,,Overcast,150,2012-10-13 05:32:00
1:11 AM,52.3,29.1,41,29.91,10.0,South,10.4,-,N/A,,Overcast,180,2012-10-13 06:11:00
2:12 AM,52.7,39.4,61,29.89,10.0,South,13.8,19.6,N/A,,Overcast,180,2012-10-13 07:12:00
2:32 AM,52.3,39.7,62,29.88,10.0,South,12.7,-,N/A,,Overcast,170,2012-10-13 07:32:00
3:32 AM,49.3,40.3,71,29.82,10.0,SSE,12.7,-,N/A,,Clear,150,2012-10-13 08:32:00
3:52 AM,48.7,40.8,74,29.83,10.0,SSE,12.7,-,N/A,,Clear,150,2012-10-13 08:52:00
4:12 AM,48.7,41.9,77,29.83,10.0,SSE,10.4,-,N/A,,Clear,150,2012-10-13 09:12:00
4:33 AM,48.7,41.9,77,29.82,10.0,SSE,8.1,-,N/A,,Clear,150,2012-10-13 09:33:00
5:32 AM,48.2,41.9,79,29.80,10.0,SSE,9.2,-,N/A,,Clear,150,2012-10-13 10:32:00
5:52 AM,47.3,41.0,79,29.78,7.0,SSE,8.1,-,N/A,,Clear,150,2012-10-13 10:52:00
6:12 AM,47.3,41.0,79,29.78,7.0,SSE,8.1,-,N/A,,Clear,150,2012-10-13 11:12:00
6:32 AM,47.3,41.0,79,29.79,10.0,SE,4.6,-,N/A,,Clear,130,2012-10-13 11:32:00
6:52 AM,47.3,41.2,79,29.78,10.0,ESE,5.8,-,N/A,,Clear,120,2012-10-13 11:52:00
7:12 AM,47.3,41.0,79,29.78,7.0,SE,5.8,-,N/A,,Clear,130,2012-10-13 12:12:00
7:52 AM,48.7,43.2,81,29.75,7.0,SE,8.1,-,N/A,,Mostly Cloudy,130,2012-10-13 12:52:00
8:12 AM,50.0,44.8,82,29.74,7.0,SSE,12.7,-,N/A,,Overcast,150,2012-10-13 13:12:00
8:52 AM,50.5,45.9,84,29.73,5.0,SSE,11.5,-,N/A,,Haze,160,2012-10-13 13:52:00
9:12 AM,51.4,46.0,82,29.73,5.0,SSE,12.7,-,N/A,,Haze,150,2012-10-13 14:12:00
9:32 AM,52.2,46.6,81,29.73,7.0,SSE,11.5,-,N/A,,Overcast,160,2012-10-13 14:32:00
9:52 AM,52.7,46.4,79,29.73,7.0,SSE,10.4,-,N/A,,Overcast,160,2012-10-13 14:52:00
10:12 AM,53.2,46.9,79,29.73,7.0,South,11.5,-,N/A,,Overcast,170,2012-10-13 15:12:00
10:52 AM,53.4,47.3,80,29.72,7.0,South,9.2,-,N/A,,Overcast,170,2012-10-13 15:52:00
11:32 AM,54.7,48.2,79,29.72,7.0,South,6.9,-,N/A,,Overcast,180,2012-10-13 16:32:00
11:51 AM,54.5,48.2,79,29.72,7.0,SSE,4.6,-,N/A,,Overcast,160,2012-10-13 16:51:00
12:12 PM,54.9,48.4,79,29.72,5.0,Calm,Calm,-,N/A,,Haze,0,2012-10-13 17:12:00
12:32 PM,55.0,48.2,78,29.71,7.0,SE,4.6,-,N/A,,Overcast,130,2012-10-13 17:32:00
12:52 PM,54.7,48.2,79,29.71,5.0,ESE,4.6,-,N/A,,Haze,120,2012-10-13 17:52:00
1:12 PM,55.8,48.7,77,29.70,5.0,SE,5.8,-,N/A,,Haze,130,2012-10-13 18:12:00
1:32 PM,57.6,48.9,73,29.70,7.0,SE,3.5,-,N/A,,Overcast,130,2012-10-13 18:32:00
1:52 PM,57.7,48.6,71,29.69,7.0,Calm,Calm,-,N/A,,Overcast,0,2012-10-13 18:52:00
2:12 PM,58.1,48.4,70,29.68,7.0,Calm,Calm,-,N/A,,Mostly Cloudy,0,2012-10-13 19:12:00
2:32 PM,59.0,48.2,67,29.68,7.0,Calm,Calm,-,N/A,,Mostly Cloudy,0,2012-10-13 19:32:00
2:52 PM,60.8,48.6,64,29.68,7.0,West,4.6,-,N/A,,Mostly Cloudy,260,2012-10-13 19:52:00
3:13 PM,60.8,48.6,64,29.68,7.0,NW,4.6,-,N/A,,Overcast,310,2012-10-13 20:13:00
3:32 PM,61.5,48.2,62,29.69,7.0,West,3.5,-,N/A,,Mostly Cloudy,280,2012-10-13 20:32:00
3:52 PM,60.8,48.4,64,29.68,7.0,Calm,Calm,-,N/A,,Scattered Clouds,0,2012-10-13 20:52:00
4:12 PM,63.0,48.6,59,29.68,5.0,Calm,Calm,-,N/A,,Haze,0,2012-10-13 21:12:00
4:52 PM,62.4,48.2,60,29.67,7.0,NNW,3.5,-,N/A,,Clear,330,2012-10-13 21:52:00
5:12 PM,61.7,47.8,60,29.69,7.0,NW,4.6,-,N/A,,Clear,310,2012-10-13 22:12:00
5:32 PM,61.7,48.0,61,29.69,7.0,Calm,Calm,-,N/A,,Clear,0,2012-10-13 22:32:00
5:52 PM,60.3,47.8,64,29.69,7.0,North,3.5,-,N/A,,Clear,350,2012-10-13 22:52:00
6:12 PM,58.6,47.1,66,29.69,7.0,NNE,3.5,-,N/A,,Clear,20,2012-10-13 23:12:00
6:32 PM,56.8,46.4,68,29.71,7.0,North,4.6,-,N/A,,Clear,350,2012-10-13 23:32:00
8:12 PM,48.4,43.3,83,29.75,7.0,NNE,3.5,-,N/A,,Clear,30,2012-10-14 01:12:00
8:32 PM,48.2,43.9,85,29.76,7.0,NE,4.6,-,N/A,,Clear,50,2012-10-14 01:32:00
9:12 PM,48.0,43.7,85,29.76,7.0,East,3.5,-,N/A,,Clear,80,2012-10-14 02:12:00
9:32 PM,49.3,44.6,84,29.76,7.0,ENE,3.5,-,N/A,,Clear,70,2012-10-14 02:32:00
9:52 PM,46.9,42.8,86,29.76,7.0,ENE,3.5,-,N/A,,Clear,60,2012-10-14 02:52:00
10:12 PM,46.0,42.1,86,29.76,5.0,NE,4.6,-,N/A,,Clear,50,2012-10-14 03:12:00
10:32 PM,43.7,41.4,91,29.75,5.0,NNE,4.6,-,N/A,,Clear,30,2012-10-14 03:32:00
10:52 PM,38.5,36.0,91,29.77,4.0,Calm,Calm,-,N/A,,Clear,0,2012-10-14 03:52:00
11:11 PM,37.9,35.8,92,29.77,4.0,Calm,Calm,-,N/A,,Clear,0,2012-10-14 04:11:00
11:32 PM,38.5,36.7,93,29.76,5.0,Calm,Calm,-,N/A,,Clear,0,2012-10-14 04:32:00